Time,TemperatureF,DewpointF,PressureIn,WindDirection,WindDirectionDegrees,WindSpeedMPH,WindSpeedGustMPH,Humidity,HourlyPrecipIn,Conditions,Clouds,dailyrainin,SoftwareType,DateUTC
2013-10-01 00:01:00,50.5,49.1,30.01,ENE,61,0.0,0.0,95,0.00,,,0.00,Wunderground v.1.15,2013-10-01 04:01:00,
2013-10-01 00:05:00,50.3,48.9,30.01,ENE,61,0.0,0.0,95,0.00,,,0.00,Wunderground v.1.15,2013-10-01 04:05:00,
2013-10-01 00:15:00,50.1,48.7,30.01,ENE,61,0.0,0.0,95,0.00,,,0.00,Wunderground v.1.15,2013-10-01 04:15:00,
2013-10-01 00:20:00,50.0,48.6,30.01,ENE,61,0.0,0.0,95,0.00,,,0.00,Wunderground v.1.15,2013-10-01 04:20:00,
2013-10-01 00:30:00,49.7,48.6,30.01,ENE,61,0.0,0.0,96,0.00,,,0.00,Wunderground v.1.15,2013-10-01 04:30:00,
2013-10-01 00:40:00,49.5,48.4,30.01,ENE,61,0.0,0.0,96,0.00,,,0.00,Wunderground v.1.15,2013-10-01 04:40:00,
2013-10-01 00:46:00,49.4,48.3,30.01,ENE,61,0.0,0.0,96,0.00,,,0.00,Wunderground v.1.15,2013-10-01 04:46:00,
2013-10-01 01:01:00,49.2,48.1,30.01,ENE,61,0.0,0.0,96,0.00,,,0.00,Wunderground v.1.15,2013-10-01 05:01:00,
2013-10-01 01:10:00,49.1,48.0,30.01,ENE,61,0.0,0.0,96,0.00,,,0.00,Wunderground v.1.15,2013-10-01 05:10:00,
2013-10-01 01:15:00,49.0,47.9,30.02,ENE,61,0.0,0.0,96,0.00,,,0.00,Wunderground v.1.15,2013-10-01 05:15:00,
2013-10-01 01:25:00,48.9,47.8,30.02,ENE,61,0.0,0.0,96,0.00,,,0.00,Wunderground v.1.15,2013-10-01 05:25:00,
2013-10-01 01:31:00,48.9,47.8,30.02,ENE,61,0.0,0.0,96,0.00,,,0.00,Wunderground v.1.15,2013-10-01 05:31:00,
2013-10-01 01:40:00,48.9,47.8,30.02,ENE,61,0.0,0.0,96,0.00,,,0.00,Wunderground v.1.15,2013-10-01 05:40:00,
2013-10-01 01:46:00,48.8,47.7,30.02,ENE,61,0.0,0.0,96,0.00,,,0.00,Wunderground v.1.15,2013-10-01 05:46:00,
2013-10-01 01:55:00,48.7,47.6,30.02,ENE,61,0.0,0.0,96,0.00,,,0.00,Wunderground v.1.15,2013-10-01 05:55:00,
2013-10-01 02:01:00,48.6,47.5,30.02,ENE,61,0.0,0.0,96,0.00,,,0.00,Wunderground v.1.15,2013-10-01 06:01:00,
2013-10-01 02:10:00,48.6,47.5,30.02,ENE,61,0.0,0.0,96,0.00,,,0.00,Wunderground v.1.15,2013-10-01 06:10:00,
2013-10-01 02:16:00,48.5,47.4,30.02,ENE,61,0.0,0.0,96,0.00,,,0.00,Wunderground v.1.15,2013-10-01 06:16:00,
2013-10-01 02:25:00,48.6,47.8,30.02,ENE,61,0.0,0.0,97,0.00,,,0.00,Wunderground v.1.15,2013-10-01 06:25:00,
2013-10-01 02:30:00,48.7,47.9,30.02,ENE,61,0.0,0.0,97,0.00,,,0.00,Wunderground v.1.15,2013-10-01 06:30:00,
2013-10-01 02:40:00,48.8,48.0,30.01,ENE,61,0.0,0.0,97,0.00,,,0.00,Wunderground v.1.15,2013-10-01 06:40:00,
2013-10-01 02:46:00,48.8,48.0,30.01,ENE,61,0.0,0.0,97,0.00,,,0.00,Wunderground v.1.15,2013-10-01 06:46:00,
2013-10-01 02:55:00,48.8,48.0,30.01,ENE,61,0.0,0.0,97,0.00,,,0.00,Wunderground v.1.15,2013-10-01 06:55:00,
2013-10-01 03:01:00,49.0,48.2,30.01,ENE,61,0.0,0.0,97,0.00,,,0.00,Wunderground v.1.15,2013-10-01 07:01:00,
2013-10-01 03:10:00,49.0,48.2,30.01,ENE,61,0.0,0.0,97,0.00,,,0.00,Wunderground v.1.15,2013-10-01 07:10:00,
2013-10-01 03:16:00,48.9,48.1,30.01,ENE,61,0.0,0.0,97,0.00,,,0.00,Wunderground v.1.15,2013-10-01 07:16:00,
2013-10-01 03:25:00,48.9,48.1,30.00,ENE,61,0.0,0.0,97,0.00,,,0.00,Wunderground v.1.15,2013-10-01 07:25:00,
2013-10-01 03:31:00,48.8,48.0,30.00,ENE,61,0.0,0.0,97,0.00,,,0.00,Wunderground v.1.15,2013-10-01 07:31:00,
2013-10-01 03:40:00,48.9,48.1,30.00,ENE,61,0.0,0.0,97,0.00,,,0.00,Wunderground v.1.15,2013-10-01 07:40:00,
2013-10-01 03:46:00,48.9,48.1,30.00,ENE,61,0.0,0.0,97,0.00,,,0.00,Wunderground v.1.15,2013-10-01 07:46:00,
2013-10-01 03:55:00,48.7,47.9,30.00,ENE,61,0.0,0.0,97,0.00,,,0.00,Wunderground v.1.15,2013-10-01 07:55:00,
2013-10-01 04:01:00,48.6,47.8,30.01,ENE,61,0.0,0.0,97,0.00,,,0.00,Wunderground v.1.15,2013-10-01 08:01:00,
2013-10-01 04:10:00,48.5,47.7,30.01,ENE,61,0.0,0.0,97,0.00,,,0.00,Wunderground v.1.15,2013-10-01 08:10:00,
2013-10-01 04:15:00,48.4,47.6,30.00,ENE,61,0.0,0.0,97,0.00,,,0.00,Wunderground v.1.15,2013-10-01 08:15:00,
2013-10-01 04:25:00,48.3,47.5,30.00,ENE,61,0.0,0.0,97,0.00,,,0.00,Wunderground v.1.15,2013-10-01 08:25:00,
2013-10-01 04:31:00,48.3,47.5,30.00,ENE,61,0.0,0.0,97,0.00,,,0.00,Wunderground v.1.15,2013-10-01 08:31:00,
2013-10-01 04:40:00,48.3,47.5,30.00,ENE,61,0.0,0.0,97,0.00,,,0.00,Wunderground v.1.15,2013-10-01 08:40:00,
2013-10-01 04:45:00,48.3,47.5,30.00,ENE,61,0.0,0.0,97,0.00,,,0.00,Wunderground v.1.15,2013-10-01 08:45:00,
2013-10-01 04:55:00,48.2,47.4,30.01,ENE,61,0.0,0.0,97,0.00,,,0.00,Wunderground v.1.15,2013-10-01 08:55:00,
2013-10-01 05:00:00,48.2,47.4,30.01,ENE,61,0.0,0.0,97,0.00,,,0.00,Wunderground v.1.15,2013-10-01 09:00:00,
2013-10-01 05:10:00,48.2,47.4,30.01,ENE,61,0.0,0.0,97,0.00,,,0.00,Wunderground v.1.15,2013-10-01 09:10:00,
2013-10-01 05:16:00,48.2,47.4,30.01,ENE,61,0.0,0.0,97,0.00,,,0.00,Wunderground v.1.15,2013-10-01 09:16:00,
2013-10-01 05:25:00,48.1,47.3,30.01,ENE,61,0.0,0.0,97,0.00,,,0.00,Wunderground v.1.15,2013-10-01 09:25:00,
2013-10-01 05:31:00,48.1,47.3,30.01,ENE,61,0.0,0.0,97,0.00,,,0.00,Wunderground v.1.15,2013-10-01 09:31:00,
2013-10-01 05:40:00,48.1,47.3,30.02,ENE,61,0.0,0.0,97,0.00,,,0.00,Wunderground v.1.15,2013-10-01 09:40:00,
2013-10-01 05:45:00,48.1,47.3,30.02,ENE,61,0.0,0.0,97,0.00,,,0.00,Wunderground v.1.15,2013-10-01 09:45:00,
2013-10-01 05:55:00,48.2,47.4,30.02,ENE,61,0.0,0.0,97,0.00,,,0.00,Wunderground v.1.15,2013-10-01 09:55:00,
2013-10-01 06:01:00,48.2,47.4,30.02,ENE,61,0.0,0.0,97,0.00,,,0.00,Wunderground v.1.15,2013-10-01 10:01:00,
2013-10-01 06:16:00,48.3,47.8,30.02,ENE,61,0.0,0.0,98,0.00,,,0.00,Wunderground v.1.15,2013-10-01 10:16:00,
2013-10-01 06:30:00,48.4,47.9,30.02,ENE,61,0.0,0.0,98,0.00,,,0.00,Wunderground v.1.15,2013-10-01 10:30:00,
2013-10-01 06:40:00,48.3,47.5,30.03,ENE,61,0.0,0.0,97,0.00,,,0.00,Wunderground v.1.15,2013-10-01 10:40:00,
2013-10-01 06:45:00,48.2,47.4,30.03,ENE,61,0.0,0.0,97,0.00,,,0.00,Wunderground v.1.15,2013-10-01 10:45:00,
2013-10-01 06:55:00,47.9,47.1,30.03,ENE,61,0.0,0.0,97,0.00,,,0.00,Wunderground v.1.15,2013-10-01 10:55:00,
2013-10-01 07:01:00,47.9,47.1,30.03,ENE,61,0.0,0.0,97,0.00,,,0.00,Wunderground v.1.15,2013-10-01 11:01:00,
2013-10-01 07:10:00,48.0,47.5,30.03,ENE,61,0.0,0.0,98,0.00,,,0.00,Wunderground v.1.15,2013-10-01 11:10:00,
2013-10-01 07:16:00,48.0,47.5,30.03,ENE,61,0.0,0.0,98,0.00,,,0.00,Wunderground v.1.15,2013-10-01 11:16:00,
2013-10-01 07:25:00,48.1,47.6,30.04,ENE,61,0.0,0.0,98,0.00,,,0.00,Wunderground v.1.15,2013-10-01 11:25:00,
2013-10-01 07:31:00,48.1,47.6,30.04,ENE,61,0.0,0.0,98,0.00,,,0.00,Wunderground v.1.15,2013-10-01 11:31:00,
2013-10-01 07:40:00,48.5,48.0,30.04,ENE,61,0.0,0.0,98,0.00,,,0.00,Wunderground v.1.15,2013-10-01 11:40:00,
2013-10-01 07:45:00,48.6,48.1,30.04,ENE,61,0.0,0.0,98,0.00,,,0.00,Wunderground v.1.15,2013-10-01 11:45:00,
2013-10-01 07:55:00,48.9,48.4,30.03,ENE,61,0.0,0.0,98,0.00,,,0.00,Wunderground v.1.15,2013-10-01 11:55:00,
2013-10-01 08:01:00,49.0,48.5,30.04,ENE,61,0.0,0.0,98,0.00,,,0.00,Wunderground v.1.15,2013-10-01 12:01:00,
2013-10-01 08:10:00,49.4,48.9,30.04,ENE,61,0.0,0.0,98,0.00,,,0.00,Wunderground v.1.15,2013-10-01 12:10:00,
2013-10-01 08:20:00,50.1,49.6,30.05,ENE,61,0.0,0.0,98,0.00,,,0.00,Wunderground v.1.15,2013-10-01 12:20:00,
2013-10-01 08:30:00,51.1,50.6,30.05,ENE,61,0.0,0.0,98,0.00,,,0.00,Wunderground v.1.15,2013-10-01 12:30:00,
2013-10-01 08:46:00,53.2,52.9,30.05,ENE,61,0.0,0.0,99,0.00,,,0.00,Wunderground v.1.15,2013-10-01 12:46:00,
2013-10-01 08:55:00,54.1,53.8,30.04,ENE,61,0.0,0.0,99,0.00,,,0.00,Wunderground v.1.15,2013-10-01 12:55:00,
2013-10-01 09:01:00,54.8,54.2,30.04,ENE,61,0.0,0.0,98,0.00,,,0.00,Wunderground v.1.15,2013-10-01 13:01:00,
2013-10-01 09:10:00,55.4,54.3,30.04,ENE,61,0.0,0.0,96,0.00,,,0.00,Wunderground v.1.15,2013-10-01 13:10:00,
2013-10-01 09:16:00,55.8,54.4,30.04,ENE,61,0.0,0.0,95,0.00,,,0.00,Wunderground v.1.15,2013-10-01 13:16:00,
2013-10-01 09:25:00,56.6,55.2,30.04,ENE,61,0.0,0.0,95,0.00,,,0.00,Wunderground v.1.15,2013-10-01 13:25:00,
2013-10-01 09:31:00,57.6,55.6,30.03,ENE,61,0.0,0.0,93,0.00,,,0.00,Wunderground v.1.15,2013-10-01 13:31:00,
2013-10-01 09:40:00,58.4,55.5,30.03,ENE,61,0.0,0.0,90,0.00,,,0.00,Wunderground v.1.15,2013-10-01 13:40:00,
2013-10-01 09:46:00,58.6,55.7,30.04,ENE,61,0.0,0.0,90,0.00,,,0.00,Wunderground v.1.15,2013-10-01 13:46:00,
2013-10-01 09:55:00,59.4,56.2,30.04,ENE,61,0.0,0.0,89,0.00,,,0.00,Wunderground v.1.15,2013-10-01 13:55:00,
2013-10-01 10:01:00,59.9,56.6,30.03,ENE,61,0.0,0.0,89,0.00,,,0.00,Wunderground v.1.15,2013-10-01 14:01:00,
2013-10-01 10:10:00,61.1,57.5,30.03,ENE,61,0.0,0.0,88,0.00,,,0.00,Wunderground v.1.15,2013-10-01 14:10:00,
2013-10-01 10:16:00,61.9,58.3,30.03,ENE,61,0.0,0.0,88,0.00,,,0.00,Wunderground v.1.15,2013-10-01 14:16:00,
2013-10-01 10:25:00,63.3,58.7,30.03,ENE,61,0.0,0.0,85,0.00,,,0.00,Wunderground v.1.15,2013-10-01 14:25:00,
2013-10-01 10:31:00,63.9,58.3,30.03,ENE,61,0.0,1.0,82,0.00,,,0.00,Wunderground v.1.15,2013-10-01 14:31:00,
2013-10-01 10:40:00,65.1,58.8,30.03,ENE,61,0.0,0.0,80,0.00,,,0.00,Wunderground v.1.15,2013-10-01 14:40:00,
2013-10-01 10:45:00,65.8,58.7,30.03,ENE,61,0.0,0.0,78,0.00,,,0.00,Wunderground v.1.15,2013-10-01 14:45:00,
2013-10-01 10:55:00,67.2,59.4,30.02,ENE,61,0.0,0.0,76,0.00,,,0.00,Wunderground v.1.15,2013-10-01 14:55:00,
2013-10-01 11:01:00,67.6,59.4,30.02,ENE,61,0.0,0.0,75,0.00,,,0.00,Wunderground v.1.15,2013-10-01 15:01:00,
2013-10-01 11:10:00,68.2,60.0,30.02,ENE,61,0.0,1.0,75,0.00,,,0.00,Wunderground v.1.15,2013-10-01 15:10:00,
2013-10-01 11:16:00,68.5,59.9,30.02,ENE,61,0.0,1.0,74,0.00,,,0.00,Wunderground v.1.15,2013-10-01 15:16:00,
2013-10-01 11:25:00,69.5,60.8,30.02,ENE,61,0.0,0.0,74,0.00,,,0.00,Wunderground v.1.15,2013-10-01 15:25:00,
2013-10-01 11:31:00,70.0,60.9,30.02,ENE,61,0.0,0.0,73,0.00,,,0.00,Wunderground v.1.15,2013-10-01 15:31:00,
2013-10-01 11:40:00,70.3,60.8,30.01,ENE,61,0.0,0.0,72,0.00,,,0.00,Wunderground v.1.15,2013-10-01 15:40:00,
2013-10-01 11:46:00,70.7,60.8,30.01,NE,36,0.0,1.0,71,0.00,,,0.00,Wunderground v.1.15,2013-10-01 15:46:00,
2013-10-01 11:55:00,71.3,61.4,30.01,NE,39,0.0,1.0,71,0.00,,,0.00,Wunderground v.1.15,2013-10-01 15:55:00,
2013-10-01 12:01:00,71.6,61.3,30.01,NE,39,0.0,0.0,70,0.00,,,0.00,Wunderground v.1.15,2013-10-01 16:01:00,
2013-10-01 12:10:00,72.5,61.7,30.00,NE,34,0.0,2.0,69,0.00,,,0.00,Wunderground v.1.15,2013-10-01 16:10:00,
2013-10-01 12:16:00,72.9,61.7,30.00,NE,42,1.0,2.0,68,0.00,,,0.00,Wunderground v.1.15,2013-10-01 16:16:00,
2013-10-01 12:25:00,74.1,62.9,30.00,East,95,0.0,1.0,68,0.00,,,0.00,Wunderground v.1.15,2013-10-01 16:25:00,
2013-10-01 12:31:00,74.8,62.7,29.99,NE,47,0.0,0.0,66,0.00,,,0.00,Wunderground v.1.15,2013-10-01 16:31:00,
2013-10-01 12:35:00,75.7,63.1,29.99,NE,47,0.0,0.0,65,0.00,,,0.00,Wunderground v.1.15,2013-10-01 16:35:00,
2013-10-01 12:46:00,76.8,63.2,29.99,North,11,0.0,1.0,63,0.00,,,0.00,Wunderground v.1.15,2013-10-01 16:46:00,
2013-10-01 12:55:00,77.1,63.5,29.98,ENE,64,1.0,1.0,63,0.00,,,0.00,Wunderground v.1.15,2013-10-01 16:55:00,
2013-10-01 13:01:00,77.5,63.0,29.98,SSE,165,0.0,0.0,61,0.00,,,0.00,Wunderground v.1.15,2013-10-01 17:01:00,
2013-10-01 13:10:00,78.5,63.0,29.98,WSW,254,0.0,2.0,59,0.00,,,0.00,Wunderground v.1.15,2013-10-01 17:10:00,
2013-10-01 13:16:00,78.5,62.5,29.97,ESE,119,1.0,2.0,58,0.00,,,0.00,Wunderground v.1.15,2013-10-01 17:16:00,
2013-10-01 13:25:00,78.8,61.8,29.97,East,89,0.0,1.0,56,0.00,,,0.00,Wunderground v.1.15,2013-10-01 17:25:00,
2013-10-01 13:31:00,79.3,62.7,29.97,North,9,0.0,1.0,57,0.00,,,0.00,Wunderground v.1.15,2013-10-01 17:31:00,
2013-10-01 13:40:00,78.9,62.4,29.96,ENE,69,1.0,1.0,57,0.00,,,0.00,Wunderground v.1.15,2013-10-01 17:40:00,
2013-10-01 13:46:00,79.1,63.1,29.96,North,10,1.0,1.0,58,0.00,,,0.00,Wunderground v.1.15,2013-10-01 17:46:00,
2013-10-01 13:55:00,79.2,62.7,29.95,South,175,1.0,1.0,57,0.00,,,0.00,Wunderground v.1.15,2013-10-01 17:55:00,
2013-10-01 14:05:00,79.5,61.9,29.95,WNW,286,1.0,1.0,55,0.00,,,0.00,Wunderground v.1.15,2013-10-01 18:05:00,
2013-10-01 14:10:00,79.8,62.7,29.95,South,178,1.0,1.0,56,0.00,,,0.00,Wunderground v.1.15,2013-10-01 18:10:00,
2013-10-01 14:15:00,79.8,62.2,29.94,North,360,0.0,1.0,55,0.00,,,0.00,Wunderground v.1.15,2013-10-01 18:15:00,
2013-10-01 14:30:00,78.4,62.9,29.94,SW,229,0.0,0.0,59,0.00,,,0.00,Wunderground v.1.15,2013-10-01 18:30:00,
2013-10-01 14:40:00,77.3,62.8,29.94,NE,34,0.0,0.0,61,0.00,,,0.00,Wunderground v.1.15,2013-10-01 18:40:00,
2013-10-01 14:45:00,77.1,62.1,29.94,SE,140,0.0,0.0,60,0.00,,,0.00,Wunderground v.1.15,2013-10-01 18:45:00,
2013-10-01 14:55:00,77.3,63.3,29.93,SW,231,0.0,0.0,62,0.00,,,0.00,Wunderground v.1.15,2013-10-01 18:55:00,
2013-10-01 15:00:00,77.5,62.5,29.93,SE,143,0.0,0.0,60,0.00,,,0.00,Wunderground v.1.15,2013-10-01 19:00:00,
2013-10-01 15:10:00,77.7,63.2,29.93,ESE,123,0.0,0.0,61,0.00,,,0.00,Wunderground v.1.15,2013-10-01 19:10:00,
2013-10-01 15:15:00,77.8,61.8,29.92,NW,321,0.0,2.0,58,0.00,,,0.00,Wunderground v.1.15,2013-10-01 19:15:00,
2013-10-01 15:25:00,78.0,60.5,29.92,NNE,33,1.0,1.0,55,0.00,,,0.00,Wunderground v.1.15,2013-10-01 19:25:00,
2013-10-01 15:30:00,78.0,60.5,29.92,West,267,1.0,2.0,55,0.00,,,0.00,Wunderground v.1.15,2013-10-01 19:30:00,
2013-10-01 15:40:00,77.5,60.6,29.92,WSW,242,1.0,1.0,56,0.00,,,0.00,Wunderground v.1.15,2013-10-01 19:40:00,
2013-10-01 15:45:00,77.1,59.2,29.92,WSW,245,1.0,1.0,54,0.00,,,0.00,Wunderground v.1.15,2013-10-01 19:45:00,
2013-10-01 15:55:00,77.4,57.9,29.92,NW,308,1.0,3.0,51,0.00,,,0.00,Wunderground v.1.15,2013-10-01 19:55:00,
2013-10-01 16:00:00,77.8,58.2,29.92,West,265,1.0,2.0,51,0.00,,,0.00,Wunderground v.1.15,2013-10-01 20:00:00,
2013-10-01 16:10:00,78.8,58.0,29.91,West,273,1.0,1.0,49,0.00,,,0.00,Wunderground v.1.15,2013-10-01 20:10:00,
2013-10-01 16:15:00,78.8,57.4,29.92,WNW,282,1.0,3.0,48,0.00,,,0.00,Wunderground v.1.15,2013-10-01 20:15:00,
2013-10-01 16:25:00,78.4,57.7,29.92,West,265,1.0,2.0,49,0.00,,,0.00,Wunderground v.1.15,2013-10-01 20:25:00,
2013-10-01 16:30:00,78.1,57.9,29.92,West,269,2.0,2.0,50,0.00,,,0.00,Wunderground v.1.15,2013-10-01 20:30:00,
2013-10-01 16:40:00,77.7,59.2,29.92,West,266,1.0,1.0,53,0.00,,,0.00,Wunderground v.1.15,2013-10-01 20:40:00,
2013-10-01 16:45:00,77.5,57.9,29.92,West,277,1.0,1.0,51,0.00,,,0.00,Wunderground v.1.15,2013-10-01 20:45:00,
2013-10-01 16:55:00,77.3,58.3,29.92,WSW,255,2.0,2.0,52,0.00,,,0.00,Wunderground v.1.15,2013-10-01 20:55:00,
2013-10-01 17:00:00,77.1,58.1,29.92,NNW,345,1.0,1.0,52,0.00,,,0.00,Wunderground v.1.15,2013-10-01 21:00:00,
2013-10-01 17:10:00,76.7,58.3,29.92,West,277,1.0,1.0,53,0.00,,,0.00,Wunderground v.1.15,2013-10-01 21:10:00,
2013-10-01 17:15:00,76.6,58.7,29.92,WSW,248,1.0,1.0,54,0.00,,,0.00,Wunderground v.1.15,2013-10-01 21:15:00,
2013-10-01 17:25:00,76.4,58.0,29.92,WSW,248,1.0,1.0,53,0.00,,,0.00,Wunderground v.1.15,2013-10-01 21:25:00,
2013-10-01 17:30:00,76.3,58.4,29.92,West,263,0.0,1.0,54,0.00,,,0.00,Wunderground v.1.15,2013-10-01 21:30:00,
2013-10-01 17:40:00,75.9,58.1,29.92,WSW,253,1.0,1.0,54,0.00,,,0.00,Wunderground v.1.15,2013-10-01 21:40:00,
2013-10-01 17:45:00,75.6,57.8,29.92,WSW,254,1.0,1.0,54,0.00,,,0.00,Wunderground v.1.15,2013-10-01 21:45:00,
2013-10-01 17:55:00,75.3,58.0,29.92,WSW,254,0.0,1.0,55,0.00,,,0.00,Wunderground v.1.15,2013-10-01 21:55:00,
2013-10-01 18:00:00,74.9,58.1,29.92,WSW,254,0.0,0.0,56,0.00,,,0.00,Wunderground v.1.15,2013-10-01 22:00:00,
2013-10-01 18:10:00,74.1,58.9,29.92,WSW,254,0.0,0.0,59,0.00,,,0.00,Wunderground v.1.15,2013-10-01 22:10:00,
2013-10-01 18:15:00,73.6,58.9,29.92,WSW,254,0.0,0.0,60,0.00,,,0.00,Wunderground v.1.15,2013-10-01 22:15:00,
2013-10-01 18:25:00,72.6,58.8,29.93,WSW,254,0.0,0.0,62,0.00,,,0.00,Wunderground v.1.15,2013-10-01 22:25:00,
2013-10-01 18:30:00,72.1,58.4,29.93,WSW,254,0.0,0.0,62,0.00,,,0.00,Wunderground v.1.15,2013-10-01 22:30:00,
2013-10-01 18:40:00,71.4,58.6,29.93,WSW,254,0.0,0.0,64,0.00,,,0.00,Wunderground v.1.15,2013-10-01 22:40:00,
2013-10-01 18:45:00,70.9,58.5,29.93,WSW,254,0.0,0.0,65,0.00,,,0.00,Wunderground v.1.15,2013-10-01 22:45:00,
2013-10-01 18:55:00,70.2,59.1,29.93,WSW,254,0.0,0.0,68,0.00,,,0.00,Wunderground v.1.15,2013-10-01 22:55:00,
2013-10-01 19:00:00,69.8,58.8,29.93,WSW,254,0.0,0.0,68,0.00,,,0.00,Wunderground v.1.15,2013-10-01 23:00:00,
2013-10-01 19:10:00,68.8,59.0,29.93,WSW,254,0.0,0.0,71,0.00,,,0.00,Wunderground v.1.15,2013-10-01 23:10:00,
2013-10-01 19:15:00,68.3,58.9,29.94,WSW,254,0.0,0.0,72,0.00,,,0.00,Wunderground v.1.15,2013-10-01 23:15:00,
2013-10-01 19:20:00,67.8,58.8,29.94,WSW,254,0.0,0.0,73,0.00,,,0.00,Wunderground v.1.15,2013-10-01 23:20:00,
2013-10-01 19:25:00,67.4,58.8,29.94,WSW,254,0.0,0.0,74,0.00,,,0.00,Wunderground v.1.15,2013-10-01 23:25:00,
2013-10-01 19:30:00,67.0,58.8,29.94,WSW,254,0.0,0.0,75,0.00,,,0.00,Wunderground v.1.15,2013-10-01 23:30:00,
2013-10-01 19:40:00,65.6,58.6,29.94,WSW,254,0.0,0.0,78,0.00,,,0.00,Wunderground v.1.15,2013-10-01 23:40:00,
2013-10-01 19:50:00,64.5,58.2,29.95,WSW,254,0.0,0.0,80,0.00,,,0.00,Wunderground v.1.15,2013-10-01 23:50:00,
2013-10-01 20:00:00,63.4,58.1,29.95,WSW,254,0.0,0.0,83,0.00,,,0.00,Wunderground v.1.15,2013-10-02 00:00:00,
2013-10-01 20:10:00,62.7,57.8,29.95,WSW,254,0.0,0.0,84,0.00,,,0.00,Wunderground v.1.15,2013-10-02 00:10:00,
2013-10-01 20:15:00,62.3,57.7,29.95,WSW,254,0.0,0.0,85,0.00,,,0.00,Wunderground v.1.15,2013-10-02 00:15:00,
2013-10-01 20:25:00,61.7,57.5,29.96,WSW,254,0.0,0.0,86,0.00,,,0.00,Wunderground v.1.15,2013-10-02 00:25:00,
2013-10-01 20:30:00,61.4,57.5,29.96,WSW,254,0.0,0.0,87,0.00,,,0.00,Wunderground v.1.15,2013-10-02 00:30:00,
2013-10-01 20:40:00,60.9,57.3,29.96,WSW,254,0.0,0.0,88,0.00,,,0.00,Wunderground v.1.15,2013-10-02 00:40:00,
2013-10-01 20:45:00,60.6,57.3,29.96,WSW,254,0.0,0.0,89,0.00,,,0.00,Wunderground v.1.15,2013-10-02 00:45:00,
2013-10-01 20:55:00,60.1,56.8,29.96,WSW,254,0.0,0.0,89,0.00,,,0.00,Wunderground v.1.15,2013-10-02 00:55:00,
2013-10-01 21:00:00,59.8,56.9,29.96,WSW,254,0.0,0.0,90,0.00,,,0.00,Wunderground v.1.15,2013-10-02 01:00:00,
2013-10-01 21:10:00,59.4,56.8,29.96,WSW,254,0.0,0.0,91,0.00,,,0.00,Wunderground v.1.15,2013-10-02 01:10:00,
2013-10-01 21:15:00,59.2,56.6,29.96,WSW,254,0.0,0.0,91,0.00,,,0.00,Wunderground v.1.15,2013-10-02 01:15:00,
2013-10-01 21:25:00,58.7,56.4,29.96,WSW,254,0.0,0.0,92,0.00,,,0.00,Wunderground v.1.15,2013-10-02 01:25:00,
2013-10-01 21:30:00,58.5,56.2,29.96,WSW,254,0.0,0.0,92,0.00,,,0.00,Wunderground v.1.15,2013-10-02 01:30:00,
2013-10-01 21:40:00,58.1,55.8,29.97,WSW,254,0.0,0.0,92,0.00,,,0.00,Wunderground v.1.15,2013-10-02 01:40:00,
2013-10-01 21:45:00,57.9,55.9,29.97,WSW,254,0.0,0.0,93,0.00,,,0.00,Wunderground v.1.15,2013-10-02 01:45:00,
2013-10-01 21:55:00,57.5,55.5,29.96,WSW,254,0.0,0.0,93,0.00,,,0.00,Wunderground v.1.15,2013-10-02 01:55:00,
2013-10-01 22:00:00,57.3,55.3,29.97,WSW,254,0.0,0.0,93,0.00,,,0.00,Wunderground v.1.15,2013-10-02 02:00:00,
2013-10-01 22:10:00,57.1,55.1,29.97,WSW,254,0.0,0.0,93,0.00,,,0.00,Wunderground v.1.15,2013-10-02 02:10:00,
2013-10-01 22:15:00,57.0,55.3,29.97,WSW,254,0.0,0.0,94,0.00,,,0.00,Wunderground v.1.15,2013-10-02 02:15:00,
2013-10-01 22:25:00,56.8,55.1,29.97,WSW,254,0.0,0.0,94,0.00,,,0.00,Wunderground v.1.15,2013-10-02 02:25:00,
2013-10-01 22:30:00,56.6,54.9,29.97,WSW,254,0.0,0.0,94,0.00,,,0.00,Wunderground v.1.15,2013-10-02 02:30:00,
2013-10-01 22:40:00,56.4,54.7,29.97,WSW,254,0.0,0.0,94,0.00,,,0.00,Wunderground v.1.15,2013-10-02 02:40:00,
2013-10-01 22:45:00,56.2,54.8,29.97,WSW,254,0.0,0.0,95,0.00,,,0.00,Wunderground v.1.15,2013-10-02 02:45:00,
2013-10-01 22:55:00,56.0,54.3,29.97,WSW,254,0.0,0.0,94,0.00,,,0.00,Wunderground v.1.15,2013-10-02 02:55:00,
2013-10-01 23:00:00,55.9,54.2,29.97,WSW,254,0.0,0.0,94,0.00,,,0.00,Wunderground v.1.15,2013-10-02 03:00:00,
2013-10-01 23:10:00,55.7,54.3,29.97,WSW,254,0.0,0.0,95,0.00,,,0.00,Wunderground v.1.15,2013-10-02 03:10:00,
2013-10-01 23:15:00,55.6,54.2,29.97,WSW,254,0.0,0.0,95,0.00,,,0.00,Wunderground v.1.15,2013-10-02 03:15:00,
2013-10-01 23:25:00,55.3,53.9,29.97,WSW,254,0.0,0.0,95,0.00,,,0.00,Wunderground v.1.15,2013-10-02 03:25:00,
2013-10-01 23:30:00,55.1,53.7,29.97,WSW,254,0.0,0.0,95,0.00,,,0.00,Wunderground v.1.15,2013-10-02 03:30:00,
2013-10-01 23:40:00,54.9,53.5,29.97,WSW,254,0.0,0.0,95,0.00,,,0.00,Wunderground v.1.15,2013-10-02 03:40:00,
2013-10-01 23:45:00,54.8,53.4,29.97,WSW,254,0.0,0.0,95,0.00,,,0.00,Wunderground v.1.15,2013-10-02 03:45:00,
2013-10-01 23:55:00,54.6,53.2,29.97,WSW,254,0.0,0.0,95,0.00,,,0.00,Wunderground v.1.15,2013-10-02 03:55:00,